Weather History for Cairo, IL

Change the Weather History Date:

Friday, January 3, 2014

  Actual Average Record
Temperature  
Mean Temperature 22 °F -  
Max Temperature 31 °F 41 °F 69 °F (1950)
Min Temperature 13 °F 28 °F 11 °F (1979)
Degree Days  
Heating Degree Days 43    
Moisture  
Dew Point 13 °F    
Average Humidity 65    
Maximum Humidity 81    
Minimum Humidity 49    
Precipitation  
Precipitation 0.00 in - - ()
Sea Level Pressure  
Sea Level Pressure 30.42 in    
Wind  
Wind Speed 5 mph (SSE)    
Max Wind Speed 13 mph    
Max Gust Speed 17 mph    
Visibility 10 miles    
Events      
Averages and records for this station are not official NWS values.
T = Trace of Precipitation, MM = Missing Value Source: NWS Daily Summary

Daily Weather History Graph

Daily Weather History Graph

Search for Another Location

Airport:

Trip Planner

Search our weather history database for the weather conditions in past years. The results will help you decide how hot, cold, wet, or windy it might be!

Date:

Astronomy

Jan. 03, 2014 Rise Set
Actual Time 7:10 AM CST 4:52 PM CST
Civil Twilight 6:41 AM CST 5:21 PM CST
Nautical Twilight 6:09 AM CST 5:53 PM CST
Astronomical Twilight 5:37 AM CST 6:25 PM CST
Moon 8:40 AM CST (1/3) 7:56 PM CST (1/3)
Length of Visible Light 10h 39m
Length of Day
9h 41m
Waxing Crescent, 8% of the Moon is Illuminated
Jan 3
Waxing Crescent
Jan 7
First Quarter
Jan 15
Full
Jan 23
Last Quarter
Jan 30
New

Hourly Weather History & Observations

Time (CST) Temp. Windchill Dew Point Humidity Pressure Visibility Wind Dir Wind Speed Gust Speed Precip Events Conditions
12:15 AM 19.2 °F 14.1 °F 11.3 °F 71% 30.48 in 10.0 mi North 3.5 mph - N/A   Clear
12:35 AM 18.5 °F 10.4 °F 11.1 °F 73% 30.48 in 10.0 mi North 5.8 mph - N/A   Clear
12:55 AM 17.6 °F 10.7 °F 10.4 °F 73% 30.49 in 10.0 mi NNW 4.6 mph - N/A   Clear
1:15 AM 17.6 °F 9.3 °F 10.6 °F 74% 30.49 in 10.0 mi North 5.8 mph - N/A   Clear
1:35 AM 17.4 °F 8.0 °F 10.2 °F 73% 30.50 in 10.0 mi NNW 6.9 mph - N/A   Clear
1:55 AM 17.1 °F 6.6 °F 10.4 °F 75% 30.51 in 10.0 mi NNW 8.1 mph - N/A   Clear
2:15 AM 17.1 °F 8.7 °F 10.2 °F 75% 30.50 in 10.0 mi North 5.8 mph - N/A   Clear
2:35 AM 16.7 °F 11.2 °F 10.2 °F 76% 30.51 in 10.0 mi North 3.5 mph - N/A   Clear
2:55 AM 16.5 °F 11.0 °F 10.0 °F 76% 30.50 in 10.0 mi North 3.5 mph - N/A   Clear
3:15 AM 16.2 °F - 10.0 °F 77% 30.50 in 10.0 mi Calm Calm - N/A   Clear
3:35 AM 16.0 °F 10.4 °F 9.3 °F 75% 30.50 in 10.0 mi North 3.5 mph - N/A   Clear
3:55 AM 15.4 °F 9.8 °F 9.0 °F 76% 30.50 in 10.0 mi North 3.5 mph - N/A   Clear
4:15 AM 15.4 °F 9.8 °F 9.0 °F 76% 30.50 in 10.0 mi North 3.5 mph - N/A   Clear
4:35 AM 14.5 °F 7.1 °F 8.6 °F 77% 30.51 in 10.0 mi NNW 4.6 mph - N/A   Clear
4:55 AM 14.9 °F 9.2 °F 9.5 °F 79% 30.51 in 10.0 mi North 3.5 mph - N/A   Clear
5:15 AM 14.7 °F - 8.8 °F 77% 30.52 in 10.0 mi Calm Calm - N/A   Clear
5:35 AM 13.8 °F 8.0 °F 8.2 °F 78% 30.52 in 10.0 mi NW 3.5 mph - N/A   Clear
5:55 AM 14.0 °F - 8.4 °F 78% 30.53 in 10.0 mi Calm Calm - N/A   Clear
6:15 AM 13.8 °F - 8.4 °F 79% 30.53 in 10.0 mi Calm Calm - N/A   Clear
6:35 AM 14.0 °F - 8.6 °F 79% 30.54 in 10.0 mi Calm Calm - N/A   Clear
6:55 AM 13.6 °F - 8.6 °F 80% 30.54 in 10.0 mi Calm Calm - N/A   Clear
7:15 AM 14.0 °F - 8.6 °F 79% 30.54 in 10.0 mi Calm Calm - N/A   Clear
7:35 AM 13.6 °F - 8.4 °F 80% 30.55 in 10.0 mi Calm Calm - N/A   Clear
7:55 AM 15.1 °F - 10.2 °F 81% 30.56 in 10.0 mi Calm Calm - N/A   Clear
8:15 AM 16.7 °F 11.2 °F 11.1 °F 79% 30.57 in 10.0 mi NNE 3.5 mph - N/A   Clear
8:35 AM 18.0 °F - 11.3 °F 75% 30.56 in 10.0 mi Calm Calm - N/A   Clear
8:55 AM 18.7 °F - 12.2 °F 76% 30.56 in 10.0 mi Calm Calm - N/A   Clear
9:15 AM 20.3 °F 15.4 °F 13.3 °F 74% 30.56 in 10.0 mi East 3.5 mph - N/A   Clear
9:35 AM 20.7 °F - 13.6 °F 74% 30.56 in 10.0 mi Calm Calm - N/A   Clear
9:55 AM 22.1 °F - 14.7 °F 73% 30.56 in 10.0 mi Calm Calm - N/A   Clear
10:15 AM 23.7 °F 16.6 °F 15.3 °F 70% 30.55 in 10.0 mi SE 5.8 mph - N/A   Clear
10:35 AM 24.3 °F 17.3 °F 14.9 °F 68% 30.53 in 10.0 mi SE 5.8 mph - N/A   Clear
10:55 AM 25.2 °F 16.5 °F 14.4 °F 64% 30.52 in 10.0 mi South 8.1 mph - N/A   Clear
11:15 AM 26.1 °F 16.8 °F 14.5 °F 62% 30.50 in 10.0 mi South 9.2 mph - N/A   Clear
11:35 AM 26.6 °F 18.2 °F 14.2 °F 60% 30.49 in 10.0 mi SE 8.1 mph - N/A   Clear
11:55 AM 27.5 °F 18.6 °F 13.8 °F 56% 30.46 in 10.0 mi South 9.2 mph - N/A   Clear
12:15 PM 28.8 °F 21.7 °F 13.6 °F 53% 30.46 in 10.0 mi SSE 6.9 mph - N/A   Clear
12:35 PM 28.9 °F 21.1 °F 12.6 °F 50% 30.44 in 10.0 mi South 8.1 mph - N/A   Clear
12:55 PM 29.3 °F 20.8 °F 12.9 °F 51% 30.44 in 10.0 mi South 9.2 mph - N/A   Clear
1:15 PM 29.8 °F 23.0 °F 13.1 °F 50% 30.42 in 10.0 mi SSE 6.9 mph - N/A   Clear
1:35 PM 30.0 °F 20.5 °F 13.1 °F 49% 30.41 in 10.0 mi SSE 11.5 mph - N/A   Clear
1:55 PM 30.6 °F 21.2 °F 13.3 °F 49% 30.40 in 10.0 mi South 11.5 mph - N/A   Clear
2:15 PM 29.5 °F 19.3 °F 13.8 °F 52% 30.39 in 10.0 mi SE 12.7 mph - N/A   Clear
2:35 PM 30.0 °F 20.0 °F 13.8 °F 51% 30.38 in 10.0 mi SE 12.7 mph - N/A   Clear
2:55 PM 30.2 °F 21.9 °F 14.4 °F 52% 30.38 in 10.0 mi South 9.2 mph - N/A   Clear
3:15 PM 31.1 °F 21.9 °F 14.5 °F 50% 30.37 in 10.0 mi SSE 11.5 mph - N/A   Clear
3:35 PM 30.9 °F 21.2 °F 14.5 °F 51% 30.37 in 10.0 mi SSE 12.7 mph - N/A   Clear
3:55 PM 30.4 °F 21.5 °F 14.5 °F 52% 30.36 in 10.0 mi South 10.4 mph - N/A   Clear
4:15 PM 30.2 °F 21.3 °F 14.9 °F 53% 30.36 in 10.0 mi South 10.4 mph - N/A   Clear
4:35 PM 29.8 °F 22.2 °F 14.9 °F 54% 30.35 in 10.0 mi South 8.1 mph - N/A   Clear
4:55 PM 29.1 °F 21.3 °F 15.6 °F 57% 30.34 in 10.0 mi South 8.1 mph - N/A   Clear
5:15 PM 29.1 °F 20.0 °F 15.8 °F 58% 30.33 in 10.0 mi SSE 10.4 mph - N/A   Clear
5:35 PM 28.9 °F 19.2 °F 16.2 °F 59% 30.33 in 10.0 mi SSE 11.5 mph - N/A   Clear
5:55 PM 28.8 °F 20.9 °F 16.7 °F 61% 30.32 in 10.0 mi SSE 8.1 mph - N/A   Clear
6:15 PM 28.9 °F 20.4 °F 16.7 °F 60% 30.31 in 10.0 mi SSE 9.2 mph - N/A   Clear
6:35 PM 28.9 °F 21.1 °F 16.7 °F 60% 30.30 in 10.0 mi SSE 8.1 mph - N/A   Clear
6:55 PM 28.9 °F 21.1 °F 16.7 °F 60% 30.30 in 10.0 mi SSE 8.1 mph - N/A   Clear
7:15 PM 28.4 °F 20.4 °F 16.7 °F 62% 30.30 in 10.0 mi SSE 8.1 mph - N/A   Clear
7:35 PM 28.4 °F 21.2 °F 17.1 °F 63% 30.29 in 10.0 mi SSE 6.9 mph - N/A   Clear
7:55 PM 28.2 °F 21.0 °F 17.2 °F 63% 30.29 in 10.0 mi SSE 6.9 mph - N/A   Clear
8:15 PM 28.0 °F 20.8 °F 17.2 °F 64% 30.28 in 10.0 mi SSE 6.9 mph - N/A   Clear
8:35 PM 28.2 °F 20.2 °F 17.4 °F 64% 30.26 in 10.0 mi SSE 8.1 mph - N/A   Clear
8:55 PM 28.4 °F 20.4 °F 17.4 °F 63% 30.25 in 10.0 mi SSE 8.1 mph - N/A   Clear
9:15 PM 28.4 °F 19.7 °F 17.4 °F 63% 30.25 in 10.0 mi SSE 9.2 mph - N/A   Clear
9:35 PM 28.4 °F 18.5 °F 16.7 °F 62% 30.23 in 10.0 mi SSE 11.5 mph - N/A   Clear
9:55 PM 28.6 °F 19.3 °F 16.5 °F 61% 30.23 in 10.0 mi SSE 10.4 mph - N/A   Clear
10:15 PM 29.1 °F 20.0 °F 15.8 °F 58% 30.22 in 10.0 mi SSE 10.4 mph - N/A   Clear
10:35 PM 29.3 °F 19.6 °F 15.3 °F 56% 30.21 in 10.0 mi SSE 11.5 mph 16.1 mph N/A   Clear
10:55 PM 29.3 °F 19.6 °F 14.9 °F 55% 30.21 in 10.0 mi South 11.5 mph - N/A   Clear
11:15 PM 29.3 °F 21.5 °F 14.9 °F 55% 30.21 in 10.0 mi South 8.1 mph - N/A   Clear
11:35 PM 28.6 °F 20.7 °F 14.7 °F 56% 30.21 in 10.0 mi South 8.1 mph - N/A   Clear
11:55 PM 28.4 °F 19.1 °F 15.4 °F 58% 30.21 in 10.0 mi South 10.4 mph 17.3 mph N/A   Clear